FALCON 9 DEB (55969 NORAD) Tracking and Keplerian Element Data

This shows tracking and keplerian element data for the satellite.

Feedback or suggestion? Click here.




ElementValue
Catalog55969
NameFALCON 9 DEB
Epoch Orbit142
Epoch Day84.62936717
Epoch Year2023
RAAN158.9908
Inclination69.9864
Eccentricity0.0041688
Argument of Perigee150.3678
Mean Anonmoly209.9919
Mean Motion16.20117495
Decay Rate0.02333293
L11 55969U 23037BH 23084.62936717 .02333293 41186-5 10013-2 0 9994
L22 55969 69.9864 158.9908 0041688 150.3678 209.9919 16.20117495 1427



Live tracking and technical data element details for FALCON 9 DEB (NORAD 55969). FALCON 9 DEB can be tracked NOW for your location showing map with azimuth and elevation plus other details from your city location.







IsCatalogInMostPopularTable: catalog: 55969, numindb: 6
Update: records affected: 1



GetName: 55969 FALCON 9 DEB

Hit Count: updated at: Tue, 06 Jun 2023 02:46:51 GMT